PAS210 WIII-WARR

Flight info

Callsign PAS210
Flight time 1h 1m
Altitude 35000
Route CA T3 BA
Aircraft A320/M-SDE3FGHIRWY/LB1

Departure

Time 2026-05-09 10:09
Airport Soekarno-Hatta International Airport (WIII)

Arrival

Time 2026-05-09 11:10
Airport Juanda International Airport (WARR)
Time Latitude Longitude Altitude Speed Heading
2026-05-09 09:33 -6.11352 106.67138 38 ft 0 kts 247°
2026-05-09 09:55 -6.11351 106.67140 37 ft 3 kts 247°
2026-05-09 09:56 -6.11342 106.67165 36 ft 4 kts 255°
2026-05-09 09:56 -6.11338 106.67191 34 ft 4 kts 275°
2026-05-09 09:56 -6.11345 106.67212 37 ft 4 kts 335°
2026-05-09 09:56 -6.11354 106.67216 34 ft 0 kts 345°
2026-05-09 09:59 -6.11341 106.67212 37 ft 4 kts 343°
2026-05-09 10:00 -6.11307 106.67200 37 ft 7 kts 339°
2026-05-09 10:00 -6.11260 106.67201 37 ft 7 kts 39°
2026-05-09 10:00 -6.11236 106.67250 37 ft 8 kts 69°
2026-05-09 10:00 -6.11215 106.67304 37 ft 9 kts 69°
2026-05-09 10:01 -6.11191 106.67364 35 ft 10 kts 69°
2026-05-09 10:01 -6.11161 106.67437 36 ft 12 kts 60°
2026-05-09 10:01 -6.11080 106.67448 37 ft 14 kts 333°
2026-05-09 10:01 -6.11008 106.67373 37 ft 16 kts 297°
2026-05-09 10:02 -6.10990 106.67258 37 ft 17 kts 260°
2026-05-09 10:02 -6.11014 106.67148 38 ft 15 kts 257°
2026-05-09 10:02 -6.11037 106.67051 36 ft 13 kts 257°
2026-05-09 10:02 -6.11058 106.66964 37 ft 12 kts 253°
2026-05-09 10:03 -6.11087 106.66891 37 ft 11 kts 248°
2026-05-09 10:03 -6.11119 106.66812 37 ft 14 kts 248°
2026-05-09 10:03 -6.11163 106.66704 37 ft 19 kts 249°
2026-05-09 10:03 -6.11217 106.66567 37 ft 23 kts 247°
2026-05-09 10:04 -6.11278 106.66413 38 ft 24 kts 249°
2026-05-09 10:04 -6.11344 106.66250 38 ft 26 kts 248°
2026-05-09 10:04 -6.11412 106.66076 35 ft 27 kts 249°
2026-05-09 10:04 -6.11486 106.65893 36 ft 29 kts 249°
2026-05-09 10:05 -6.11562 106.65700 37 ft 30 kts 248°
2026-05-09 10:05 -6.11642 106.65499 35 ft 32 kts 248°
2026-05-09 10:05 -6.11724 106.65294 38 ft 31 kts 248°
2026-05-09 10:05 -6.11801 106.65100 35 ft 29 kts 248°
2026-05-09 10:06 -6.11879 106.64907 38 ft 30 kts 248°
2026-05-09 10:06 -6.11958 106.64707 36 ft 31 kts 248°
2026-05-09 10:06 -6.12042 106.64499 38 ft 33 kts 249°
2026-05-09 10:06 -6.12123 106.64292 38 ft 32 kts 248°
2026-05-09 10:07 -6.12200 106.64102 38 ft 25 kts 248°
2026-05-09 10:07 -6.12250 106.63972 38 ft 17 kts 259°
2026-05-09 10:07 -6.12204 106.63882 39 ft 15 kts 337°
2026-05-09 10:07 -6.12103 106.63917 38 ft 16 kts 31°
2026-05-09 10:08 -6.12054 106.63978 37 ft 12 kts 70°
2026-05-09 10:08 -6.11977 106.64170 38 ft 63 kts 67°
2026-05-09 10:08 -6.11726 106.64799 38 ft 125 kts 68°
2026-05-09 10:08 -6.11343 106.65750 108 ft 166 kts 69°
2026-05-09 10:09 -6.10981 106.66850 730 ft 166 kts 69°
2026-05-09 10:09 -6.10487 106.67912 1356 ft 169 kts 53°
2026-05-09 10:09 -6.09682 106.68860 1658 ft 189 kts 46°
2026-05-09 10:09 -6.08700 106.69858 1894 ft 214 kts 45°
2026-05-09 10:10 -6.07587 106.70973 2243 ft 238 kts 47°
2026-05-09 10:10 -6.06364 106.72211 2739 ft 257 kts 46°
2026-05-09 10:10 -6.05225 106.73582 3450 ft 263 kts 62°
2026-05-09 10:10 -6.04696 106.75338 4245 ft 266 kts 87°
2026-05-09 10:11 -6.04980 106.77175 5073 ft 269 kts 108°
2026-05-09 10:11 -6.05572 106.78969 5915 ft 273 kts 108°
2026-05-09 10:11 -6.06181 106.80787 6709 ft 276 kts 108°
2026-05-09 10:11 -6.06798 106.82631 7443 ft 281 kts 108°
2026-05-09 10:12 -6.07421 106.84497 8236 ft 284 kts 108°
2026-05-09 10:12 -6.08053 106.86389 9001 ft 287 kts 108°
2026-05-09 10:12 -6.08692 106.88304 9744 ft 291 kts 108°
2026-05-09 10:12 -6.09348 106.90272 10172 ft 307 kts 108°
2026-05-09 10:13 -6.10051 106.92382 10407 ft 328 kts 108°
2026-05-09 10:13 -6.10785 106.94582 10943 ft 335 kts 108°
2026-05-09 10:13 -6.11529 106.96818 11599 ft 338 kts 108°
2026-05-09 10:13 -6.12275 106.99071 12261 ft 342 kts 108°
2026-05-09 10:14 -6.13029 107.01347 12914 ft 346 kts 108°
2026-05-09 10:14 -6.13795 107.03656 13552 ft 349 kts 108°
2026-05-09 10:14 -6.14568 107.05983 14126 ft 352 kts 108°
2026-05-09 10:14 -6.15346 107.08324 14704 ft 354 kts 108°
2026-05-09 10:15 -6.16130 107.10687 15249 ft 358 kts 108°
2026-05-09 10:15 -6.16919 107.13070 15765 ft 362 kts 108°
2026-05-09 10:15 -6.17715 107.15476 16319 ft 364 kts 108°
2026-05-09 10:15 -6.18516 107.17895 16877 ft 366 kts 109°
2026-05-09 10:16 -6.19325 107.20334 17376 ft 370 kts 109°
2026-05-09 10:16 -6.20139 107.22796 17876 ft 373 kts 109°
2026-05-09 10:16 -6.20960 107.25280 18358 ft 376 kts 109°
2026-05-09 10:16 -6.21787 107.27785 18804 ft 379 kts 109°
2026-05-09 10:17 -6.22620 107.30304 19256 ft 382 kts 109°
2026-05-09 10:17 -6.23451 107.32810 19692 ft 385 kts 109°
2026-05-09 10:17 -6.24315 107.35411 20128 ft 388 kts 109°
2026-05-09 10:17 -6.25172 107.37987 20591 ft 391 kts 109°
2026-05-09 10:18 -6.26022 107.40557 21036 ft 393 kts 109°
2026-05-09 10:18 -6.26886 107.43178 21489 ft 396 kts 109°
2026-05-09 10:18 -6.27757 107.45817 21935 ft 399 kts 109°
2026-05-09 10:18 -6.28635 107.48471 22377 ft 402 kts 110°
2026-05-09 10:19 -6.29523 107.51151 22823 ft 405 kts 110°
2026-05-09 10:19 -6.30416 107.53850 23253 ft 408 kts 109°
2026-05-09 10:19 -6.31313 107.56569 23631 ft 411 kts 110°
2026-05-09 10:19 -6.32217 107.59304 23991 ft 414 kts 110°
2026-05-09 10:20 -6.33126 107.62057 24350 ft 416 kts 110°
2026-05-09 10:20 -6.34042 107.64826 24704 ft 418 kts 110°
2026-05-09 10:20 -6.34960 107.67604 25054 ft 420 kts 110°
2026-05-09 10:20 -6.35883 107.70398 25396 ft 422 kts 109°
2026-05-09 10:21 -6.36806 107.73194 25738 ft 424 kts 109°
2026-05-09 10:21 -6.37739 107.76019 26087 ft 426 kts 109°
2026-05-09 10:21 -6.38678 107.78854 26421 ft 428 kts 110°
2026-05-09 10:21 -6.39622 107.81706 26741 ft 430 kts 110°
2026-05-09 10:22 -6.40564 107.84563 27045 ft 432 kts 109°
2026-05-09 10:22 -6.41511 107.87441 27342 ft 434 kts 109°
2026-05-09 10:22 -6.42451 107.90297 27627 ft 436 kts 109°
2026-05-09 10:22 -6.43406 107.93198 27923 ft 438 kts 110°
2026-05-09 10:23 -6.44365 107.96113 28213 ft 440 kts 109°
2026-05-09 10:23 -6.45327 107.99041 28498 ft 442 kts 109°
2026-05-09 10:23 -6.46380 108.01944 28772 ft 443 kts 115°
2026-05-09 10:23 -6.47620 108.04795 29039 ft 445 kts 115°
2026-05-09 10:24 -6.48867 108.07654 29316 ft 447 kts 115°
2026-05-09 10:24 -6.50119 108.10526 29573 ft 448 kts 115°
2026-05-09 10:24 -6.51372 108.13409 29813 ft 451 kts 115°
2026-05-09 10:24 -6.52616 108.16277 30003 ft 454 kts 115°
2026-05-09 10:25 -6.53881 108.19198 30205 ft 456 kts 114°
2026-05-09 10:25 -6.55151 108.22136 30423 ft 457 kts 115°
2026-05-09 10:25 -6.56425 108.25081 30643 ft 459 kts 114°
2026-05-09 10:25 -6.57699 108.28030 30832 ft 460 kts 115°
2026-05-09 10:26 -6.58980 108.30987 31045 ft 461 kts 114°
2026-05-09 10:26 -6.60251 108.33913 31253 ft 462 kts 114°
2026-05-09 10:26 -6.61540 108.36882 31484 ft 462 kts 114°
2026-05-09 10:26 -6.62822 108.39845 31753 ft 462 kts 114°
2026-05-09 10:27 -6.63686 108.41849 31943 ft 461 kts 113°
2026-05-09 10:27 -6.64946 108.44774 32229 ft 461 kts 113°
2026-05-09 10:27 -6.66221 108.47729 32516 ft 460 kts 113°
2026-05-09 10:27 -6.67930 108.51681 32882 ft 460 kts 113°
2026-05-09 10:28 -6.68776 108.53634 33061 ft 460 kts 112°
2026-05-09 10:28 -6.69815 108.56674 33349 ft 458 kts 103°
2026-05-09 10:28 -6.70394 108.59821 33639 ft 457 kts 98°
2026-05-09 10:28 -6.70877 108.62985 33902 ft 457 kts 98°
2026-05-09 10:29 -6.71354 108.66102 34135 ft 456 kts 97°
2026-05-09 10:29 -6.71838 108.69260 34379 ft 455 kts 98°
2026-05-09 10:29 -6.72321 108.72406 34618 ft 455 kts 98°
2026-05-09 10:29 -6.72805 108.75553 34798 ft 455 kts 98°
2026-05-09 10:30 -6.73286 108.78681 34848 ft 449 kts 97°
2026-05-09 10:30 -6.74232 108.84808 34852 ft 443 kts 98°
2026-05-09 10:31 -6.75181 108.90934 34847 ft 443 kts 98°
2026-05-09 10:31 -6.76122 108.97064 34863 ft 443 kts 97°
2026-05-09 10:32 -6.77054 109.03206 34860 ft 443 kts 97°
2026-05-09 10:32 -6.77979 109.09310 34861 ft 443 kts 97°
2026-05-09 10:33 -6.78914 109.15453 34854 ft 443 kts 98°
2026-05-09 10:33 -6.79855 109.21589 34849 ft 443 kts 98°
2026-05-09 10:34 -6.80793 109.27716 34845 ft 444 kts 98°
2026-05-09 10:34 -6.82192 109.36898 34848 ft 444 kts 98°
2026-05-09 10:35 -6.83120 109.43047 34843 ft 444 kts 98°
2026-05-09 10:35 -6.84055 109.49209 34849 ft 444 kts 98°
2026-05-09 10:36 -6.84986 109.55317 34852 ft 444 kts 98°
2026-05-09 10:36 -6.85923 109.61456 34853 ft 443 kts 98°
2026-05-09 10:37 -6.86857 109.67597 34855 ft 443 kts 98°
2026-05-09 10:37 -6.87788 109.73734 34866 ft 443 kts 98°
2026-05-09 10:38 -6.88718 109.79872 34875 ft 443 kts 98°
2026-05-09 10:38 -6.89638 109.85979 34869 ft 443 kts 98°
2026-05-09 10:39 -6.90557 109.92115 34865 ft 443 kts 98°
2026-05-09 10:39 -6.91485 109.98260 34868 ft 443 kts 98°
2026-05-09 10:40 -6.92413 110.04404 34862 ft 443 kts 98°
2026-05-09 10:40 -6.93333 110.10505 34841 ft 443 kts 98°
2026-05-09 10:41 -6.94262 110.16650 34842 ft 444 kts 97°
2026-05-09 10:41 -6.95190 110.22806 34826 ft 444 kts 98°
2026-05-09 10:42 -6.96115 110.28965 34827 ft 445 kts 97°
2026-05-09 10:42 -6.97030 110.35092 34824 ft 445 kts 97°
2026-05-09 10:43 -6.97531 110.41282 34833 ft 444 kts 90°
2026-05-09 10:43 -6.97637 110.47509 34831 ft 444 kts 90°
2026-05-09 10:44 -6.97753 110.53736 34827 ft 445 kts 90°
2026-05-09 10:44 -6.97868 110.59925 34832 ft 445 kts 91°
2026-05-09 10:46 -6.98143 110.75540 34827 ft 445 kts 90°
2026-05-09 10:46 -6.98251 110.81743 34837 ft 445 kts 90°
2026-05-09 10:47 -6.98358 110.87987 34674 ft 444 kts 91°
2026-05-09 10:47 -6.98412 110.91087 34185 ft 441 kts 91°
2026-05-09 10:47 -6.98464 110.94134 33631 ft 440 kts 91°
2026-05-09 10:47 -6.98519 110.97239 33078 ft 437 kts 91°
2026-05-09 10:48 -6.98573 111.00248 32569 ft 433 kts 91°
2026-05-09 10:48 -6.98627 111.03278 32045 ft 430 kts 91°
2026-05-09 10:48 -6.98679 111.06281 31534 ft 428 kts 91°
2026-05-09 10:48 -6.98730 111.09279 31033 ft 425 kts 91°
2026-05-09 10:49 -6.98782 111.12237 30533 ft 422 kts 91°
2026-05-09 10:49 -6.98831 111.15189 30043 ft 420 kts 91°
2026-05-09 10:49 -6.98875 111.18087 29524 ft 417 kts 91°
2026-05-09 10:49 -6.98922 111.20993 29057 ft 412 kts 91°
2026-05-09 10:50 -6.98970 111.23866 28600 ft 407 kts 91°
2026-05-09 10:50 -6.99017 111.26699 28158 ft 403 kts 91°
2026-05-09 10:50 -6.99061 111.29512 27716 ft 399 kts 91°
2026-05-09 10:50 -6.99108 111.32293 27270 ft 396 kts 91°
2026-05-09 10:51 -6.99158 111.35045 26833 ft 393 kts 91°
2026-05-09 10:51 -6.99204 111.37790 26374 ft 391 kts 92°
2026-05-09 10:51 -6.99254 111.40526 25923 ft 388 kts 94°
2026-05-09 10:51 -6.99625 111.43169 25452 ft 385 kts 105°
2026-05-09 10:52 -7.00351 111.45757 24982 ft 384 kts 107°
2026-05-09 10:52 -7.01091 111.48340 24495 ft 383 kts 107°
2026-05-09 10:52 -7.01831 111.50929 24000 ft 383 kts 107°
2026-05-09 10:52 -7.02566 111.53513 23501 ft 383 kts 107°
2026-05-09 10:53 -7.03298 111.56098 22948 ft 383 kts 107°
2026-05-09 10:53 -7.04017 111.58642 22463 ft 381 kts 107°
2026-05-09 10:53 -7.04741 111.61204 21979 ft 379 kts 107°
2026-05-09 10:53 -7.05460 111.63754 21505 ft 377 kts 107°
2026-05-09 10:54 -7.06180 111.66296 21030 ft 376 kts 107°
2026-05-09 10:54 -7.06899 111.68827 20557 ft 375 kts 107°
2026-05-09 10:54 -7.07611 111.71344 20091 ft 373 kts 107°
2026-05-09 10:54 -7.08310 111.73825 19636 ft 372 kts 107°
2026-05-09 10:55 -7.09015 111.76335 19172 ft 371 kts 107°
2026-05-09 10:55 -7.09715 111.78822 18794 ft 367 kts 107°
2026-05-09 10:55 -7.10416 111.81300 18338 ft 367 kts 107°
2026-05-09 10:55 -7.11115 111.83767 17837 ft 367 kts 107°
2026-05-09 10:56 -7.11808 111.86217 17451 ft 362 kts 107°
2026-05-09 10:56 -7.12503 111.88663 17043 ft 359 kts 106°
2026-05-09 10:56 -7.13181 111.91054 16545 ft 359 kts 106°
2026-05-09 10:56 -7.13862 111.93460 16261 ft 353 kts 107°
2026-05-09 10:57 -7.14533 111.95832 15955 ft 348 kts 107°
2026-05-09 10:57 -7.15183 111.98138 15833 ft 337 kts 106°
2026-05-09 10:57 -7.15866 112.00326 15709 ft 327 kts 113°
2026-05-09 10:57 -7.16752 112.02395 15594 ft 317 kts 114°
2026-05-09 10:58 -7.17628 112.04436 15454 ft 308 kts 114°
2026-05-09 10:58 -7.18473 112.06404 15211 ft 304 kts 114°
2026-05-09 10:58 -7.19311 112.08361 14940 ft 302 kts 114°
2026-05-09 10:58 -7.20142 112.10304 14651 ft 301 kts 114°
2026-05-09 10:59 -7.20969 112.12232 14355 ft 299 kts 114°
2026-05-09 10:59 -7.21787 112.14142 13866 ft 295 kts 114°
2026-05-09 10:59 -7.22599 112.16041 13315 ft 293 kts 114°
2026-05-09 10:59 -7.23400 112.17919 12749 ft 290 kts 114°
2026-05-09 11:00 -7.24192 112.19777 12189 ft 287 kts 114°
2026-05-09 11:00 -7.24970 112.21598 11654 ft 285 kts 114°
2026-05-09 11:00 -7.25748 112.23424 11102 ft 282 kts 113°
2026-05-09 11:00 -7.26515 112.25232 10578 ft 279 kts 113°
2026-05-09 11:01 -7.27277 112.27027 10048 ft 277 kts 113°
2026-05-09 11:01 -7.28033 112.28798 9496 ft 274 kts 113°
2026-05-09 11:01 -7.28784 112.30556 8907 ft 271 kts 113°
2026-05-09 11:01 -7.29519 112.32297 8329 ft 268 kts 110°
2026-05-09 11:02 -7.29956 112.34084 7812 ft 263 kts 101°
2026-05-09 11:02 -7.30318 112.35921 7395 ft 265 kts 102°
2026-05-09 11:02 -7.30677 112.37699 7104 ft 260 kts 102°
2026-05-09 11:02 -7.31040 112.39488 6693 ft 262 kts 102°
2026-05-09 11:03 -7.31405 112.41272 6392 ft 258 kts 102°
2026-05-09 11:03 -7.31766 112.43044 6017 ft 257 kts 102°
2026-05-09 11:03 -7.32123 112.44804 5650 ft 255 kts 102°
2026-05-09 11:03 -7.32477 112.46554 5282 ft 254 kts 102°
2026-05-09 11:04 -7.32824 112.48276 5054 ft 246 kts 102°
2026-05-09 11:04 -7.33157 112.49929 4925 ft 235 kts 102°
2026-05-09 11:04 -7.33475 112.51512 4815 ft 228 kts 102°
2026-05-09 11:04 -7.33790 112.53078 4561 ft 228 kts 102°
2026-05-09 11:05 -7.34068 112.54621 4264 ft 226 kts 101°
2026-05-09 11:05 -7.34324 112.56164 3978 ft 223 kts 100°
2026-05-09 11:05 -7.34574 112.57707 3689 ft 222 kts 100°
2026-05-09 11:05 -7.34823 112.59239 3407 ft 221 kts 101°
2026-05-09 11:06 -7.35071 112.60762 3128 ft 220 kts 101°
2026-05-09 11:06 -7.35317 112.62275 2855 ft 217 kts 101°
2026-05-09 11:06 -7.35561 112.63772 2573 ft 214 kts 100°
2026-05-09 11:06 -7.35801 112.65251 2303 ft 212 kts 100°
2026-05-09 11:07 -7.36039 112.66714 2051 ft 209 kts 99°
2026-05-09 11:07 -7.36268 112.68118 1761 ft 200 kts 99°
2026-05-09 11:07 -7.36484 112.69448 1506 ft 185 kts 99°
2026-05-09 11:07 -7.36683 112.70672 1294 ft 165 kts 99°
2026-05-09 11:08 -7.36860 112.71758 1081 ft 149 kts 98°
2026-05-09 11:08 -7.37022 112.72762 913 ft 142 kts 98°
2026-05-09 11:08 -7.37180 112.73732 749 ft 139 kts 99°
2026-05-09 11:08 -7.37333 112.74676 577 ft 138 kts 97°
2026-05-09 11:09 -7.37488 112.75630 400 ft 138 kts 96°
2026-05-09 11:09 -7.37644 112.76585 219 ft 138 kts 97°
2026-05-09 11:09 -7.37798 112.77533 41 ft 136 kts 98°
2026-05-09 11:09 -7.37939 112.78429 8 ft 105 kts 99°
2026-05-09 11:10 -7.38015 112.78900 10 ft 48 kts 98°
2026-05-09 11:10 -7.38048 112.79103 11 ft 36 kts 99°
2026-05-09 11:10 -7.38027 112.79283 10 ft 20 kts 68°
2026-05-09 11:10 -7.37974 112.79398 11 ft 15 kts 45°
2026-05-09 11:11 -7.37889 112.79419 11 ft 14 kts
2026-05-09 11:11 -7.37787 112.79436 11 ft 16 kts
2026-05-09 11:11 -7.37721 112.79448 9 ft 5 kts
2026-05-09 11:11 -7.37691 112.79450 9 ft 4 kts 350°
2026-05-09 11:12 -7.37679 112.79435 -13 ft 2 kts 298°
2026-05-09 11:12 -7.37672 112.79424 10 ft 1 kts 314°
2026-05-09 11:12 -7.37669 112.79423 10 ft 1 kts 332°
2026-05-09 11:12 -7.37634 112.79403 10 ft 6 kts 338°
2026-05-09 11:13 -7.37596 112.79406 10 ft 3 kts 10°
2026-05-09 11:13 -7.37581 112.79408 9 ft 0 kts